TimeCST,TemperatureF,Dew PointF,Humidity,Sea Level PressureIn,VisibilityMPH,Wind Direction,Wind SpeedMPH,Gust SpeedMPH,PrecipitationIn,Events,Conditions,WindDirDegrees,DateUTC
6:00 AM,67,62,77,29.87,12,South,3.5,,,,Overcast,190,2013-02-08 12:00:00
6:00 AM,68.0,60.8,78,29.86,-9999.0,South,3.5,-,N/A,,Clear,190,2013-02-08 12:00:00
7:00 AM,69.8,62.6,78,29.88,-9999.0,WSW,2.3,-,N/A,,Clear,240,2013-02-08 13:00:00
8:00 AM,77.0,64.4,65,29.89,-9999.0,North,3.5,-,N/A,,Clear,350,2013-02-08 14:00:00
9:00 AM,83,63,40,29.92,12,North,5.8,,,,Clear,10,2013-02-08 15:00:00
9:00 AM,82.4,62.6,51,29.90,-9999.0,North,5.8,-,N/A,,Clear,10,2013-02-08 15:00:00
10:00 AM,89.6,60.8,38,29.90,-9999.0,NE,12.7,27.6,N/A,,Clear,40,2013-02-08 16:00:00
11:00 AM,91.4,60.8,36,29.88,-9999.0,ENE,19.6,-,N/A,,Clear,70,2013-02-08 17:00:00
12:00 PM,92,57,22,29.87,12,East,18.4,,,,Scattered Clouds,80,2013-02-08 18:00:00
12:00 PM,91.4,57.2,31,29.85,6.2,East,18.4,-,N/A,,Mostly Cloudy,80,2013-02-08 18:00:00
1:00 PM,93.2,60.8,34,29.83,6.2,ENE,19.6,31.1,N/A,,Scattered Clouds,70,2013-02-08 19:00:00
2:00 PM,93.2,59.0,32,29.79,6.2,ENE,19.6,-,N/A,,Scattered Clouds,60,2013-02-08 20:00:00
3:00 PM,93,60,24,29.79,12,ENE,16.1,,,,Scattered Clouds,70,2013-02-08 21:00:00
3:00 PM,93.2,60.8,34,29.77,6.2,ENE,16.1,-,N/A,,Partly Cloudy,70,2013-02-08 21:00:00
4:00 PM,91.4,60.8,36,29.77,6.2,ENE,17.3,-,N/A,,Partly Cloudy,60,2013-02-08 22:00:00
5:00 PM,87.8,64.4,46,29.77,-9999.0,ENE,19.6,-,N/A,,Clear,60,2013-02-08 23:00:00
6:00 PM,84,65,43,29.80,12,ENE,18.4,,,,Clear,70,2013-02-09 00:00:00
6:00 PM,84.2,64.4,51,29.79,-9999.0,ENE,18.4,-,N/A,,Clear,70,2013-02-09 00:00:00
7:00 PM,82.4,64.4,54,29.81,-9999.0,ENE,19.6,-,N/A,,Clear,70,2013-02-09 01:00:00
8:00 PM,80.6,62.6,54,29.83,-9999.0,ENE,21.9,-,N/A,,Clear,70,2013-02-09 02:00:00